AUA431 LOWW-LEVC

Flight info

Callsign AUA431
Flight time 2h 32m
Altitude 34000
Route OSPEN DCT ABRUK DCT SETAL DCT DETSA/N0435F390 DCT GEKBA DCT VAMTU DCT KOLON DCT GANGU DCT PADKO DCT DIVKO DCT NILDU DCT NENDA N975 BCN M985 SOPET
Aircraft A20N/M-SDE2E3FGHIJ1RWXY/LB1

Departure

Time 2026-05-05 06:00
Airport Vienna International Airport (LOWW)

Arrival

Time 2026-05-05 08:33
Airport Valencia Airport (LEVC)
Time Latitude Longitude Altitude Speed Heading
2026-05-05 05:50 48.11538 16.56793 605 ft 0 kts 206°
2026-05-05 05:54 48.11537 16.56793 605 ft 0 kts 206°
2026-05-05 05:55 48.11512 16.56774 605 ft 7 kts 206°
2026-05-05 05:55 48.11457 16.56800 604 ft 10 kts 115°
2026-05-05 05:55 48.11482 16.56874 606 ft 8 kts 39°
2026-05-05 05:55 48.11541 16.56932 606 ft 12 kts 45°
2026-05-05 05:56 48.11536 16.57054 606 ft 13 kts 118°
2026-05-05 05:56 48.11495 16.57176 606 ft 13 kts 116°
2026-05-05 05:56 48.11451 16.57311 603 ft 16 kts 116°
2026-05-05 05:56 48.11441 16.57417 601 ft 11 kts 51°
2026-05-05 05:57 48.11519 16.57461 600 ft 13 kts
2026-05-05 05:57 48.11610 16.57429 600 ft 14 kts 344°
2026-05-05 05:57 48.11708 16.57387 599 ft 15 kts 343°
2026-05-05 05:57 48.11807 16.57345 597 ft 17 kts 345°
2026-05-05 05:58 48.11927 16.57294 593 ft 14 kts 344°
2026-05-05 05:58 48.11988 16.57335 590 ft 13 kts 64°
2026-05-05 05:58 48.12010 16.57482 589 ft 14 kts 91°
2026-05-05 05:58 48.11990 16.57616 590 ft 14 kts 106°
2026-05-05 05:59 48.11959 16.57763 590 ft 14 kts 114°
2026-05-05 05:59 48.11886 16.57858 591 ft 15 kts 160°
2026-05-05 05:59 48.11635 16.57965 593 ft 75 kts 165°
2026-05-05 05:59 48.10873 16.58285 597 ft 147 kts 167°
2026-05-05 06:00 48.09808 16.58697 1124 ft 164 kts 165°
2026-05-05 06:00 48.08728 16.59165 2059 ft 162 kts 162°
2026-05-05 06:00 48.07704 16.59603 2941 ft 159 kts 167°
2026-05-05 06:00 48.06558 16.59499 3451 ft 180 kts 205°
2026-05-05 06:01 48.05621 16.58096 3943 ft 207 kts 229°
2026-05-05 06:01 48.04726 16.56268 4491 ft 228 kts 231°
2026-05-05 06:01 48.03757 16.54293 5127 ft 246 kts 230°
2026-05-05 06:01 48.02692 16.52191 5797 ft 263 kts 230°
2026-05-05 06:02 48.01570 16.50025 6718 ft 268 kts 230°
2026-05-05 06:02 48.00432 16.47853 7677 ft 271 kts 230°
2026-05-05 06:02 47.99263 16.45642 8634 ft 274 kts 230°
2026-05-05 06:02 47.98074 16.43410 9582 ft 277 kts 229°
2026-05-05 06:03 47.96869 16.41158 10440 ft 281 kts 229°
2026-05-05 06:03 47.95645 16.38880 11101 ft 292 kts 229°
2026-05-05 06:03 47.94354 16.36482 11884 ft 300 kts 229°
2026-05-05 06:03 47.93048 16.34058 12749 ft 303 kts 228°
2026-05-05 06:04 47.91727 16.31608 13593 ft 306 kts 228°
2026-05-05 06:04 47.90398 16.29149 14401 ft 310 kts 229°
2026-05-05 06:04 47.89034 16.26632 15201 ft 314 kts 229°
2026-05-05 06:04 47.87666 16.24109 15973 ft 318 kts 229°
2026-05-05 06:05 47.86259 16.21514 16714 ft 322 kts 229°
2026-05-05 06:05 47.84862 16.18941 17422 ft 326 kts 230°
2026-05-05 06:05 47.83419 16.16283 18143 ft 331 kts 230°
2026-05-05 06:05 47.81993 16.13658 18825 ft 335 kts 230°
2026-05-05 06:06 47.80519 16.10947 19510 ft 339 kts 230°
2026-05-05 06:06 47.79026 16.08204 20176 ft 343 kts 230°
2026-05-05 06:06 47.77514 16.05428 20838 ft 347 kts 230°
2026-05-05 06:06 47.75997 16.02648 21496 ft 351 kts 230°
2026-05-05 06:07 47.74457 15.99828 22140 ft 355 kts 231°
2026-05-05 06:07 47.72897 15.96975 22782 ft 359 kts 231°
2026-05-05 06:07 47.71317 15.94088 23411 ft 363 kts 231°
2026-05-05 06:07 47.69720 15.91173 24037 ft 367 kts 231°
2026-05-05 06:08 47.68116 15.88245 24650 ft 371 kts 231°
2026-05-05 06:08 47.66473 15.85252 25255 ft 374 kts 231°
2026-05-05 06:08 47.64844 15.82287 25858 ft 377 kts 231°
2026-05-05 06:08 47.63178 15.79258 26458 ft 379 kts 231°
2026-05-05 06:09 47.61522 15.76250 27031 ft 382 kts 231°
2026-05-05 06:09 47.59832 15.73184 27586 ft 385 kts 231°
2026-05-05 06:09 47.58134 15.70110 28108 ft 388 kts 231°
2026-05-05 06:09 47.56444 15.67050 28610 ft 390 kts 231°
2026-05-05 06:10 47.54729 15.63953 29085 ft 393 kts 231°
2026-05-05 06:10 47.52999 15.60830 29549 ft 395 kts 231°
2026-05-05 06:10 47.51316 15.57619 29983 ft 397 kts 235°
2026-05-05 06:10 47.49808 15.54190 30392 ft 400 kts 240°
2026-05-05 06:11 47.48504 15.50565 30771 ft 402 kts 245°
2026-05-05 06:11 47.47407 15.46733 31147 ft 404 kts 250°
2026-05-05 06:11 47.46546 15.42818 31503 ft 406 kts 253°
2026-05-05 06:11 47.45758 15.38785 31857 ft 408 kts 254°
2026-05-05 06:12 47.44989 15.34796 32203 ft 409 kts 253°
2026-05-05 06:12 47.44201 15.30716 32556 ft 411 kts 253°
2026-05-05 06:12 47.43427 15.26730 32974 ft 410 kts 253°
2026-05-05 06:12 47.42634 15.22666 33457 ft 408 kts 253°
2026-05-05 06:13 47.41856 15.18698 33934 ft 405 kts 254°
2026-05-05 06:13 47.41078 15.14740 34395 ft 403 kts 254°
2026-05-05 06:13 47.40297 15.10775 34799 ft 401 kts 254°
2026-05-05 06:13 47.39529 15.06882 35146 ft 400 kts 254°
2026-05-05 06:14 47.38751 15.02954 35465 ft 399 kts 253°
2026-05-05 06:14 47.37978 14.99059 35774 ft 398 kts 253°
2026-05-05 06:14 47.37197 14.95146 36070 ft 398 kts 253°
2026-05-05 06:14 47.36410 14.91209 36351 ft 398 kts 253°
2026-05-05 06:15 47.35628 14.87303 36624 ft 397 kts 253°
2026-05-05 06:15 47.34848 14.83410 36969 ft 396 kts 253°
2026-05-05 06:15 47.34078 14.79569 37303 ft 396 kts 253°
2026-05-05 06:15 47.33297 14.75685 37576 ft 397 kts 253°
2026-05-05 06:16 47.32511 14.71786 37804 ft 398 kts 253°
2026-05-05 06:16 47.31720 14.67867 38033 ft 399 kts 253°
2026-05-05 06:16 47.30934 14.63977 38252 ft 400 kts 253°
2026-05-05 06:16 47.30131 14.60014 38470 ft 401 kts 253°
2026-05-05 06:17 47.29343 14.56127 38670 ft 402 kts 253°
2026-05-05 06:17 47.28531 14.52140 38843 ft 404 kts 253°
2026-05-05 06:17 47.26924 14.44268 38938 ft 406 kts 253°
2026-05-05 06:18 47.25295 14.36310 38944 ft 405 kts 253°
2026-05-05 06:18 47.23674 14.28434 38951 ft 405 kts 252°
2026-05-05 06:19 47.22035 14.20518 38959 ft 405 kts 252°
2026-05-05 06:19 47.20398 14.12647 38962 ft 404 kts 252°
2026-05-05 06:20 47.18754 14.04767 38951 ft 404 kts 252°
2026-05-05 06:20 47.17107 13.96890 38965 ft 404 kts 252°
2026-05-05 06:21 47.15453 13.89021 38970 ft 405 kts 252°
2026-05-05 06:21 47.13790 13.81139 38949 ft 405 kts 252°
2026-05-05 06:22 47.12118 13.73239 38952 ft 405 kts 252°
2026-05-05 06:22 47.10439 13.65344 38951 ft 405 kts 252°
2026-05-05 06:23 47.08770 13.57526 38953 ft 405 kts 252°
2026-05-05 06:23 47.07084 13.49648 38967 ft 404 kts 252°
2026-05-05 06:24 47.05400 13.41816 38976 ft 403 kts 252°
2026-05-05 06:24 47.03722 13.34037 38983 ft 403 kts 251°
2026-05-05 06:25 47.02028 13.26225 38971 ft 403 kts 251°
2026-05-05 06:25 47.00330 13.18414 38970 ft 404 kts 251°
2026-05-05 06:26 46.98626 13.10604 38975 ft 404 kts 251°
2026-05-05 06:26 46.96907 13.02757 38983 ft 405 kts 251°
2026-05-05 06:27 46.94331 12.91054 38975 ft 405 kts 251°
2026-05-05 06:28 46.92601 12.83233 38983 ft 404 kts 251°
2026-05-05 06:28 46.90883 12.75487 38983 ft 404 kts 251°
2026-05-05 06:29 46.89148 12.67698 38981 ft 404 kts 251°
2026-05-05 06:29 46.87412 12.59925 38977 ft 404 kts 251°
2026-05-05 06:30 46.85666 12.52137 39000 ft 405 kts 251°
2026-05-05 06:30 46.83909 12.44338 39018 ft 406 kts 251°
2026-05-05 06:31 46.82081 12.36531 39018 ft 406 kts 248°
2026-05-05 06:31 46.79770 12.29047 39013 ft 405 kts 241°
2026-05-05 06:32 46.76922 12.22033 39008 ft 404 kts 236°
2026-05-05 06:32 46.73603 12.15448 39012 ft 404 kts 232°
2026-05-05 06:33 46.70212 12.08943 39017 ft 403 kts 232°
2026-05-05 06:33 46.66831 12.02470 39022 ft 403 kts 232°
2026-05-05 06:34 46.63428 11.95974 39018 ft 403 kts 232°
2026-05-05 06:34 46.60029 11.89502 39004 ft 403 kts 232°
2026-05-05 06:35 46.56634 11.83050 38990 ft 403 kts 232°
2026-05-05 06:35 46.53234 11.76605 38983 ft 404 kts 232°
2026-05-05 06:36 46.49815 11.70138 38988 ft 403 kts 232°
2026-05-05 06:36 46.46427 11.63743 38993 ft 402 kts 232°
2026-05-05 06:37 46.43010 11.57311 38992 ft 402 kts 232°
2026-05-05 06:37 46.39609 11.50922 38991 ft 402 kts 232°
2026-05-05 06:38 46.36200 11.44531 38981 ft 401 kts 232°
2026-05-05 06:38 46.32796 11.38169 38979 ft 402 kts 232°
2026-05-05 06:39 46.29364 11.31767 38979 ft 403 kts 231°
2026-05-05 06:39 46.26856 11.27097 38976 ft 403 kts 231°
2026-05-05 06:40 46.22249 11.18536 38982 ft 403 kts 231°
2026-05-05 06:40 46.18796 11.12141 38982 ft 402 kts 231°
2026-05-05 06:41 46.15382 11.05833 38979 ft 402 kts 231°
2026-05-05 06:41 46.11952 10.99507 38970 ft 401 kts 231°
2026-05-05 06:42 46.08527 10.93204 38970 ft 401 kts 231°
2026-05-05 06:42 46.05088 10.86892 38965 ft 402 kts 231°
2026-05-05 06:43 46.01620 10.80542 38960 ft 402 kts 231°
2026-05-05 06:43 45.98181 10.74258 38963 ft 402 kts 231°
2026-05-05 06:44 45.94720 10.67947 38962 ft 403 kts 231°
2026-05-05 06:44 45.91256 10.61642 38975 ft 402 kts 231°
2026-05-05 06:45 45.87796 10.55364 38960 ft 402 kts 231°
2026-05-05 06:45 45.84349 10.49121 38961 ft 401 kts 231°
2026-05-05 06:46 45.80877 10.42847 38962 ft 401 kts 231°
2026-05-05 06:46 45.77409 10.36592 38961 ft 401 kts 231°
2026-05-05 06:47 45.73956 10.30381 38955 ft 400 kts 231°
2026-05-05 06:47 45.70495 10.24166 38969 ft 400 kts 231°
2026-05-05 06:48 45.67022 10.17947 38956 ft 400 kts 231°
2026-05-05 06:48 45.63571 10.11778 38947 ft 400 kts 231°
2026-05-05 06:49 45.60083 10.05558 38955 ft 400 kts 231°
2026-05-05 06:49 45.56607 9.99375 38948 ft 399 kts 231°
2026-05-05 06:50 45.53148 9.93233 38943 ft 399 kts 231°
2026-05-05 06:50 45.49691 9.87109 38939 ft 399 kts 231°
2026-05-05 06:51 45.46221 9.80972 38936 ft 398 kts 231°
2026-05-05 06:51 45.42755 9.74856 38947 ft 398 kts 231°
2026-05-05 06:52 45.39276 9.68736 38946 ft 398 kts 231°
2026-05-05 06:52 45.35883 9.62777 38943 ft 397 kts 231°
2026-05-05 06:53 45.32417 9.56701 38952 ft 398 kts 231°
2026-05-05 06:53 45.28931 9.50605 38940 ft 397 kts 231°
2026-05-05 06:54 45.25452 9.44536 38952 ft 396 kts 231°
2026-05-05 06:54 45.21995 9.38515 38951 ft 396 kts 231°
2026-05-05 06:55 45.18530 9.32494 38945 ft 395 kts 231°
2026-05-05 06:55 45.15059 9.26474 38949 ft 394 kts 231°
2026-05-05 06:56 45.11573 9.20441 38945 ft 395 kts 231°
2026-05-05 06:56 45.08109 9.14460 38948 ft 394 kts 230°
2026-05-05 06:57 45.04641 9.08487 38950 ft 395 kts 230°
2026-05-05 06:57 45.01159 9.02500 38952 ft 395 kts 231°
2026-05-05 06:58 44.97676 8.96522 38955 ft 394 kts 231°
2026-05-05 06:58 44.94206 8.90585 38952 ft 393 kts 231°
2026-05-05 06:59 44.90743 8.84668 38950 ft 391 kts 231°
2026-05-05 06:59 44.87283 8.78769 38937 ft 390 kts 231°
2026-05-05 07:00 44.83831 8.72895 38937 ft 390 kts 231°
2026-05-05 07:00 44.80363 8.67005 38942 ft 389 kts 231°
2026-05-05 07:01 44.76924 8.61181 38943 ft 389 kts 231°
2026-05-05 07:01 44.73463 8.55325 38935 ft 388 kts 231°
2026-05-05 07:02 44.70011 8.49498 38926 ft 389 kts 231°
2026-05-05 07:02 44.66570 8.43703 38947 ft 389 kts 231°
2026-05-05 07:03 44.63115 8.37897 38933 ft 388 kts 231°
2026-05-05 07:03 44.59668 8.32118 38934 ft 387 kts 230°
2026-05-05 07:04 44.56213 8.26337 38946 ft 387 kts 230°
2026-05-05 07:04 44.52761 8.20568 38934 ft 386 kts 230°
2026-05-05 07:05 44.49327 8.14842 38942 ft 385 kts 230°
2026-05-05 07:05 44.45890 8.09122 38934 ft 384 kts 230°
2026-05-05 07:06 44.42464 8.03434 38944 ft 384 kts 231°
2026-05-05 07:06 44.39012 7.97708 38922 ft 384 kts 230°
2026-05-05 07:07 44.35561 7.91997 38936 ft 385 kts 230°
2026-05-05 07:07 44.32113 7.86306 38925 ft 386 kts 230°
2026-05-05 07:08 44.28656 7.80642 38937 ft 386 kts 229°
2026-05-05 07:08 44.24878 7.75319 38915 ft 387 kts 224°
2026-05-05 07:09 44.20877 7.70365 38942 ft 386 kts 223°
2026-05-05 07:09 44.16855 7.65390 38928 ft 385 kts 224°
2026-05-05 07:10 44.13081 7.60171 38930 ft 385 kts 229°
2026-05-05 07:10 44.09573 7.54586 38920 ft 384 kts 230°
2026-05-05 07:11 44.06063 7.48987 38920 ft 384 kts 230°
2026-05-05 07:11 44.02556 7.43391 38939 ft 384 kts 230°
2026-05-05 07:12 43.99048 7.37805 38924 ft 384 kts 230°
2026-05-05 07:12 43.95549 7.32241 38935 ft 384 kts 229°
2026-05-05 07:13 43.92046 7.26683 38933 ft 384 kts 229°
2026-05-05 07:13 43.88535 7.21119 38928 ft 384 kts 229°
2026-05-05 07:14 43.85041 7.15595 38930 ft 384 kts 230°
2026-05-05 07:14 43.81514 7.10028 38933 ft 384 kts 230°
2026-05-05 07:15 43.77989 7.04476 38932 ft 385 kts 230°
2026-05-05 07:15 43.74675 6.98700 38932 ft 384 kts 235°
2026-05-05 07:16 43.71815 6.92513 38928 ft 383 kts 240°
2026-05-05 07:16 43.69432 6.85957 38936 ft 383 kts 245°
2026-05-05 07:17 43.67400 6.79149 38932 ft 383 kts 246°
2026-05-05 07:17 43.65390 6.72364 38932 ft 383 kts 246°
2026-05-05 07:18 43.63382 6.65585 38937 ft 383 kts 247°
2026-05-05 07:18 43.61361 6.58771 38926 ft 383 kts 246°
2026-05-05 07:19 43.59345 6.51999 38924 ft 383 kts 247°
2026-05-05 07:19 43.57318 6.45204 38923 ft 383 kts 247°
2026-05-05 07:20 43.55307 6.38475 38920 ft 383 kts 247°
2026-05-05 07:20 43.53268 6.31676 38913 ft 382 kts 246°
2026-05-05 07:21 43.51249 6.24952 38902 ft 382 kts 246°
2026-05-05 07:21 43.49214 6.18198 38905 ft 382 kts 246°
2026-05-05 07:22 43.47168 6.11429 38904 ft 382 kts 246°
2026-05-05 07:22 43.45139 6.04738 38901 ft 382 kts 246°
2026-05-05 07:23 43.43093 5.98017 38903 ft 381 kts 246°
2026-05-05 07:23 43.41040 5.91297 38900 ft 382 kts 246°
2026-05-05 07:24 43.39000 5.84618 38896 ft 381 kts 246°
2026-05-05 07:24 43.36940 5.77897 38901 ft 382 kts 246°
2026-05-05 07:25 43.34887 5.71214 38902 ft 382 kts 246°
2026-05-05 07:25 43.32817 5.64491 38924 ft 382 kts 246°
2026-05-05 07:26 43.30751 5.57799 38889 ft 381 kts 246°
2026-05-05 07:26 43.28685 5.51122 38917 ft 381 kts 246°
2026-05-05 07:27 43.26624 5.44473 38908 ft 381 kts 246°
2026-05-05 07:27 43.24553 5.37818 38892 ft 381 kts 246°
2026-05-05 07:28 43.22471 5.31148 38939 ft 380 kts 245°
2026-05-05 07:28 43.20389 5.24503 38910 ft 380 kts 245°
2026-05-05 07:29 43.18314 5.17886 38902 ft 380 kts 245°
2026-05-05 07:29 43.16225 5.11242 38902 ft 380 kts 245°
2026-05-05 07:30 43.14151 5.04662 38905 ft 379 kts 245°
2026-05-05 07:30 43.11019 4.94753 38921 ft 380 kts 245°
2026-05-05 07:31 43.08907 4.88124 38924 ft 380 kts 244°
2026-05-05 07:31 43.06404 4.81811 38912 ft 378 kts 237°
2026-05-05 07:32 43.03330 4.75990 38913 ft 378 kts 231°
2026-05-05 07:32 42.99720 4.70726 38917 ft 379 kts 224°
2026-05-05 07:33 42.95811 4.65951 38918 ft 380 kts 223°
2026-05-05 07:33 42.91875 4.61181 38920 ft 379 kts 223°
2026-05-05 07:34 42.87945 4.56438 38930 ft 379 kts 223°
2026-05-05 07:34 42.84006 4.51699 38917 ft 378 kts 223°
2026-05-05 07:35 42.80058 4.46957 38926 ft 379 kts 223°
2026-05-05 07:35 42.76114 4.42228 38919 ft 379 kts 224°
2026-05-05 07:36 42.72171 4.37512 38923 ft 379 kts 224°
2026-05-05 07:36 42.68208 4.32777 38930 ft 379 kts 223°
2026-05-05 07:37 42.64255 4.28065 38930 ft 379 kts 223°
2026-05-05 07:37 42.60296 4.23348 38917 ft 379 kts 223°
2026-05-05 07:38 42.56358 4.18670 38930 ft 378 kts 223°
2026-05-05 07:38 42.52404 4.13983 38932 ft 378 kts 223°
2026-05-05 07:39 42.48449 4.09297 38936 ft 377 kts 223°
2026-05-05 07:39 42.44510 4.04640 38931 ft 378 kts 223°
2026-05-05 07:40 42.40546 3.99963 38945 ft 379 kts 223°
2026-05-05 07:40 42.36576 3.95280 38932 ft 379 kts 223°
2026-05-05 07:41 42.32603 3.90609 38906 ft 379 kts 223°
2026-05-05 07:41 42.28685 3.85879 38934 ft 379 kts 226°
2026-05-05 07:42 42.25093 3.80695 38943 ft 378 kts 231°
2026-05-05 07:42 42.21900 3.75052 38931 ft 378 kts 235°
2026-05-05 07:43 42.18865 3.69311 38931 ft 378 kts 235°
2026-05-05 07:43 42.15823 3.63562 38944 ft 379 kts 235°
2026-05-05 07:44 42.12754 3.57767 38916 ft 378 kts 235°
2026-05-05 07:44 42.09709 3.52021 38925 ft 378 kts 235°
2026-05-05 07:45 42.06654 3.46269 38906 ft 378 kts 236°
2026-05-05 07:45 42.03606 3.40538 38928 ft 377 kts 236°
2026-05-05 07:46 42.00558 3.34818 38908 ft 378 kts 235°
2026-05-05 07:46 41.97506 3.29097 38926 ft 378 kts 235°
2026-05-05 07:47 41.94430 3.23347 38903 ft 379 kts 234°
2026-05-05 07:47 41.91365 3.17633 38915 ft 379 kts 235°
2026-05-05 07:48 41.88280 3.11886 38915 ft 379 kts 235°
2026-05-05 07:48 41.85219 3.06193 38910 ft 379 kts 235°
2026-05-05 07:49 41.82112 3.00429 38916 ft 380 kts 235°
2026-05-05 07:49 41.79043 2.94740 38921 ft 380 kts 235°
2026-05-05 07:50 41.75937 2.88995 38921 ft 380 kts 235°
2026-05-05 07:50 41.72847 2.83288 38938 ft 380 kts 235°
2026-05-05 07:51 41.69747 2.77582 38925 ft 379 kts 235°
2026-05-05 07:51 41.66616 2.71976 38928 ft 379 kts 233°
2026-05-05 07:52 41.63374 2.66435 38934 ft 378 kts 233°
2026-05-05 07:52 41.60126 2.60879 38926 ft 378 kts 234°
2026-05-05 07:53 41.56906 2.55369 38922 ft 379 kts 233°
2026-05-05 07:53 41.53663 2.49821 38933 ft 378 kts 234°
2026-05-05 07:54 41.50431 2.44301 38929 ft 378 kts 234°
2026-05-05 07:54 41.47208 2.38807 38927 ft 378 kts 234°
2026-05-05 07:55 41.43981 2.33313 38939 ft 378 kts 233°
2026-05-05 07:55 41.40756 2.27828 38931 ft 378 kts 233°
2026-05-05 07:56 41.37526 2.22350 38924 ft 377 kts 233°
2026-05-05 07:56 41.34277 2.16847 38929 ft 377 kts 233°
2026-05-05 07:57 41.31043 2.11410 38928 ft 377 kts 232°
2026-05-05 07:57 41.27567 2.06182 38932 ft 377 kts 230°
2026-05-05 07:58 41.24070 2.00992 38938 ft 377 kts 230°
2026-05-05 07:58 41.20580 1.95822 38950 ft 377 kts 230°
2026-05-05 07:59 41.17090 1.90663 38941 ft 376 kts 230°
2026-05-05 07:59 41.13595 1.85505 38939 ft 375 kts 230°
2026-05-05 08:00 41.10125 1.80394 38932 ft 375 kts 230°
2026-05-05 08:00 41.06628 1.75256 38930 ft 374 kts 230°
2026-05-05 08:01 41.03159 1.70169 38932 ft 373 kts 230°
2026-05-05 08:01 40.99677 1.65074 38928 ft 373 kts 230°
2026-05-05 08:02 40.96199 1.59987 38929 ft 372 kts 231°
2026-05-05 08:02 40.92744 1.54941 38938 ft 372 kts 231°
2026-05-05 08:03 40.89292 1.49907 38916 ft 371 kts 231°
2026-05-05 08:03 40.85836 1.44877 38930 ft 371 kts 231°
2026-05-05 08:04 40.82373 1.39855 38929 ft 372 kts 231°
2026-05-05 08:04 40.78885 1.34802 38915 ft 371 kts 230°
2026-05-05 08:05 40.75409 1.29771 38924 ft 370 kts 230°
2026-05-05 08:05 40.71968 1.24800 38826 ft 371 kts 230°
2026-05-05 08:06 40.70220 1.22278 38465 ft 369 kts 230°
2026-05-05 08:06 40.68517 1.19825 37992 ft 366 kts 230°
2026-05-05 08:06 40.66799 1.17348 37448 ft 366 kts 230°
2026-05-05 08:06 40.65085 1.14880 36875 ft 366 kts 230°
2026-05-05 08:07 40.63373 1.12413 36168 ft 368 kts 230°
2026-05-05 08:07 40.61650 1.09934 35591 ft 368 kts 230°
2026-05-05 08:07 40.59937 1.07467 34975 ft 370 kts 230°
2026-05-05 08:07 40.58201 1.04973 34316 ft 372 kts 230°
2026-05-05 08:08 40.56466 1.02486 33562 ft 373 kts 230°
2026-05-05 08:08 40.54717 0.99976 32834 ft 373 kts 230°
2026-05-05 08:08 40.52953 0.97454 32174 ft 370 kts 230°
2026-05-05 08:08 40.51224 0.94989 31707 ft 364 kts 230°
2026-05-05 08:09 40.49549 0.92604 31247 ft 358 kts 230°
2026-05-05 08:09 40.47869 0.90209 30781 ft 353 kts 230°
2026-05-05 08:09 40.46221 0.87859 30319 ft 348 kts 230°
2026-05-05 08:09 40.44605 0.85557 29861 ft 343 kts 230°
2026-05-05 08:10 40.42999 0.83265 29406 ft 338 kts 230°
2026-05-05 08:10 40.41424 0.81024 28968 ft 334 kts 230°
2026-05-05 08:10 40.39861 0.78801 28531 ft 329 kts 230°
2026-05-05 08:10 40.38330 0.76625 28098 ft 326 kts 230°
2026-05-05 08:11 40.36802 0.74454 27650 ft 322 kts 230°
2026-05-05 08:11 40.35308 0.72329 27212 ft 319 kts 230°
2026-05-05 08:11 40.33801 0.70193 26766 ft 316 kts 230°
2026-05-05 08:11 40.32331 0.68110 26325 ft 314 kts 230°
2026-05-05 08:12 40.30839 0.65995 25876 ft 311 kts 230°
2026-05-05 08:12 40.29382 0.63933 25436 ft 309 kts 230°
2026-05-05 08:12 40.27930 0.61881 24987 ft 307 kts 230°
2026-05-05 08:12 40.26502 0.59863 24544 ft 305 kts 230°
2026-05-05 08:13 40.25065 0.57834 24101 ft 303 kts 230°
2026-05-05 08:13 40.23642 0.55829 23671 ft 301 kts 230°
2026-05-05 08:13 40.22221 0.53827 23248 ft 298 kts 230°
2026-05-05 08:13 40.20822 0.51860 22850 ft 296 kts 230°
2026-05-05 08:14 40.19420 0.49887 22445 ft 294 kts 230°
2026-05-05 08:14 40.18035 0.47940 22059 ft 292 kts 230°
2026-05-05 08:14 40.16677 0.46030 21672 ft 289 kts 230°
2026-05-05 08:14 40.15313 0.44114 21275 ft 287 kts 230°
2026-05-05 08:15 40.13961 0.42214 20880 ft 285 kts 230°
2026-05-05 08:15 40.12606 0.40313 20478 ft 284 kts 229°
2026-05-05 08:15 40.11271 0.38442 20080 ft 283 kts 230°
2026-05-05 08:15 40.09930 0.36564 19679 ft 281 kts 230°
2026-05-05 08:16 40.08611 0.34713 19274 ft 281 kts 229°
2026-05-05 08:16 40.07276 0.32844 18870 ft 280 kts 229°
2026-05-05 08:16 40.05955 0.30996 18454 ft 281 kts 229°
2026-05-05 08:16 40.04627 0.29137 18035 ft 281 kts 229°
2026-05-05 08:17 40.03294 0.27276 17619 ft 281 kts 229°
2026-05-05 08:17 40.01965 0.25419 17202 ft 281 kts 229°
2026-05-05 08:17 40.00615 0.23538 16785 ft 282 kts 229°
2026-05-05 08:17 39.99295 0.21696 16370 ft 282 kts 229°
2026-05-05 08:18 39.97958 0.19830 15962 ft 281 kts 229°
2026-05-05 08:18 39.96621 0.17968 15542 ft 281 kts 229°
2026-05-05 08:18 39.95279 0.16099 15126 ft 281 kts 229°
2026-05-05 08:18 39.93959 0.14260 14726 ft 281 kts 229°
2026-05-05 08:19 39.92621 0.12396 14319 ft 280 kts 229°
2026-05-05 08:19 39.91298 0.10554 13919 ft 279 kts 229°
2026-05-05 08:19 39.89970 0.08705 13517 ft 279 kts 229°
2026-05-05 08:19 39.88658 0.06880 13125 ft 278 kts 229°
2026-05-05 08:20 39.87336 0.05042 12734 ft 278 kts 228°
2026-05-05 08:20 39.86020 0.03217 12348 ft 277 kts 228°
2026-05-05 08:20 39.84696 0.01388 11956 ft 276 kts 226°
2026-05-05 08:20 39.83203 -0.00151 11565 ft 277 kts 213°
2026-05-05 08:21 39.81433 -0.01212 11176 ft 280 kts 202°
2026-05-05 08:21 39.79598 -0.01970 10805 ft 279 kts 200°
2026-05-05 08:21 39.77729 -0.02706 10422 ft 278 kts 200°
2026-05-05 08:21 39.75884 -0.03430 10046 ft 276 kts 200°
2026-05-05 08:22 39.74086 -0.04136 9916 ft 264 kts 200°
2026-05-05 08:22 39.72353 -0.04816 9654 ft 259 kts 200°
2026-05-05 08:22 39.70634 -0.05495 9294 ft 258 kts 200°
2026-05-05 08:22 39.68924 -0.06173 8945 ft 258 kts 199°
2026-05-05 08:23 39.67211 -0.06850 8587 ft 257 kts 199°
2026-05-05 08:23 39.65508 -0.07523 8234 ft 256 kts 199°
2026-05-05 08:23 39.63807 -0.08194 7895 ft 256 kts 199°
2026-05-05 08:23 39.62086 -0.08878 7546 ft 255 kts 199°
2026-05-05 08:24 39.60402 -0.09569 7200 ft 255 kts 199°
2026-05-05 08:24 39.58720 -0.10266 6858 ft 255 kts 199°
2026-05-05 08:24 39.57041 -0.10961 6518 ft 255 kts 199°
2026-05-05 08:24 39.55345 -0.11661 6181 ft 254 kts 199°
2026-05-05 08:25 39.53666 -0.12354 5856 ft 254 kts 199°
2026-05-05 08:25 39.51981 -0.13046 5527 ft 254 kts 199°
2026-05-05 08:25 39.50291 -0.13741 5195 ft 253 kts 199°
2026-05-05 08:25 39.48616 -0.14429 4873 ft 253 kts 199°
2026-05-05 08:26 39.46946 -0.15115 4547 ft 252 kts 199°
2026-05-05 08:26 39.45290 -0.15796 4236 ft 251 kts 199°
2026-05-05 08:26 39.43622 -0.16481 4027 ft 244 kts 199°
2026-05-05 08:26 39.42057 -0.17122 3947 ft 232 kts 199°
2026-05-05 08:27 39.40538 -0.17746 3868 ft 222 kts 199°
2026-05-05 08:27 39.39118 -0.18491 3662 ft 224 kts 218°
2026-05-05 08:27 39.38139 -0.20053 3487 ft 228 kts 251°
2026-05-05 08:27 39.37979 -0.22031 3316 ft 226 kts 284°
2026-05-05 08:28 39.38673 -0.23821 3145 ft 224 kts 311°
2026-05-05 08:28 39.39735 -0.25311 2974 ft 224 kts 313°
2026-05-05 08:28 39.40694 -0.26883 2796 ft 221 kts 304°
2026-05-05 08:28 39.41472 -0.28558 2622 ft 215 kts 299°
2026-05-05 08:29 39.42162 -0.30245 2442 ft 209 kts 297°
2026-05-05 08:29 39.42796 -0.31903 2268 ft 203 kts 296°
2026-05-05 08:29 39.43397 -0.33509 2132 ft 195 kts 296°
2026-05-05 08:30 39.44478 -0.36387 1938 ft 162 kts 296°
2026-05-05 08:30 39.44960 -0.37661 1708 ft 150 kts 296°
2026-05-05 08:30 39.45395 -0.38816 1486 ft 136 kts 297°
2026-05-05 08:30 39.45794 -0.39870 1296 ft 127 kts 297°
2026-05-05 08:31 39.46182 -0.40893 1150 ft 126 kts 296°
2026-05-05 08:31 39.46571 -0.41917 1000 ft 126 kts 297°
2026-05-05 08:31 39.46963 -0.42925 825 ft 126 kts 295°
2026-05-05 08:31 39.47333 -0.43950 657 ft 126 kts 295°
2026-05-05 08:32 39.47725 -0.44976 497 ft 126 kts 295°
2026-05-05 08:32 39.48111 -0.46008 337 ft 126 kts 296°
2026-05-05 08:32 39.48493 -0.47019 200 ft 125 kts 297°
2026-05-05 08:32 39.48855 -0.47956 191 ft 96 kts 297°
2026-05-05 08:33 39.49021 -0.48398 211 ft 23 kts 298°
2026-05-05 08:33 39.49122 -0.48508 213 ft 15 kts 345°
2026-05-05 08:33 39.49216 -0.48466 210 ft 15 kts 58°
2026-05-05 08:33 39.49204 -0.48349 206 ft 16 kts 115°
2026-05-05 08:34 39.49162 -0.48239 203 ft 19 kts 117°
2026-05-05 08:34 39.49095 -0.48062 196 ft 23 kts 116°
2026-05-05 08:34 39.49027 -0.47871 186 ft 12 kts 99°
2026-05-05 08:34 39.49048 -0.47737 181 ft 17 kts 76°
2026-05-05 08:35 39.49054 -0.47629 177 ft 13 kts 103°
2026-05-05 08:35 39.49012 -0.47512 171 ft 17 kts 116°
2026-05-05 08:35 39.48965 -0.47389 169 ft 13 kts 116°
2026-05-05 08:35 39.48947 -0.47326 168 ft 4 kts 75°
2026-05-05 08:36 39.48976 -0.47302 170 ft 4 kts 11°
2026-05-05 08:36 39.49005 -0.47295 171 ft 3 kts 12°
2026-05-05 08:36 39.49018 -0.47291 172 ft 0 kts 13°
2026-05-05 08:36 39.49023 -0.47289 172 ft 0 kts 13°
2026-05-05 08:37 39.49024 -0.47289 172 ft 0 kts 13°
2026-05-05 08:37 39.49025 -0.47289 172 ft 0 kts 13°